Location: Hains Lake
(37.8540°N, 99.8578°W)
Time: 20:43:03
(UTC+00:00)

deb Explorer IX - Pass Details

Date: 25 April 2021
Orbit: 541 x 1098 km, 38.8° (Epoch: 13 May)

Event Time Altitude Azimuth Distance (km) Brightness Sun altitude
Rises 15:58:25 0° 282° (WNW) 2,800 ? 47.1°
Reaches altitude 10° 16:00:39 10° 276° (W) 1,953 ? 47.5°
Maximum altitude 16:04:56 46° 203° (SSW) 893 ? 48.3°
Drops below altitude 10° 16:09:53 10° 131° (SE) 2,245 ? 49.2°
Sets 16:12:36 0° 125° (SE) 3,269 ? 49.7°
